EFW2816 EGKK-DAAG

Flight info

Callsign EFW2816
Flight time 2h 20m
Altitude 37000
Route SFD Y47 DRAKE L151 SITET UN859 SOPIL DCT BALAN DCT EVPOK DCT NARAK DCT GAI DCT LOMRA DCT ROCAN DCT PUMAL N859 GENIO N855 BUYAH A27 ALR
Aircraft A321/M-SDE3FGHIRWY/LB1

Departure

Time 2026-05-08 09:57
Airport London Gatwick Airport (EGKK)

Arrival

Time 2026-05-08 12:17
Airport Houari Boumediene Airport (DAAG)
Time Latitude Longitude Altitude Speed Heading
2026-05-08 09:18 51.15589 -0.16909 205 ft 0 kts 167°
2026-05-08 09:44 51.15594 -0.16911 215 ft 2 kts 167°
2026-05-08 09:44 51.15613 -0.16917 209 ft 3 kts 168°
2026-05-08 09:44 51.15632 -0.16924 214 ft 3 kts 172°
2026-05-08 09:44 51.15650 -0.16924 214 ft 3 kts 207°
2026-05-08 09:45 51.15662 -0.16906 215 ft 3 kts 250°
2026-05-08 09:45 51.15666 -0.16887 215 ft 2 kts 258°
2026-05-08 09:45 51.15669 -0.16859 211 ft 2 kts 257°
2026-05-08 09:45 51.15671 -0.16850 213 ft 0 kts 257°
2026-05-08 09:48 51.15670 -0.16850 213 ft 0 kts 257°
2026-05-08 09:48 51.15668 -0.16871 212 ft 4 kts 257°
2026-05-08 09:49 51.15660 -0.16923 216 ft 6 kts 257°
2026-05-08 09:49 51.15651 -0.16990 210 ft 7 kts 257°
2026-05-08 09:49 51.15639 -0.17071 205 ft 8 kts 257°
2026-05-08 09:49 51.15625 -0.17168 207 ft 11 kts 257°
2026-05-08 09:50 51.15604 -0.17318 213 ft 8 kts 254°
2026-05-08 09:50 51.15559 -0.17324 211 ft 8 kts 165°
2026-05-08 09:50 51.15477 -0.17291 205 ft 14 kts 167°
2026-05-08 09:50 51.15387 -0.17267 214 ft 12 kts 191°
2026-05-08 09:51 51.15338 -0.17365 211 ft 12 kts 214°
2026-05-08 09:51 51.15292 -0.17468 210 ft 13 kts 267°
2026-05-08 09:51 51.15275 -0.17646 205 ft 20 kts 257°
2026-05-08 09:51 51.15243 -0.17872 215 ft 21 kts 257°
2026-05-08 09:52 51.15212 -0.18097 212 ft 16 kts 258°
2026-05-08 09:52 51.15168 -0.18201 211 ft 12 kts 186°
2026-05-08 09:52 51.15105 -0.18265 204 ft 13 kts 266°
2026-05-08 09:52 51.15087 -0.18412 213 ft 15 kts 252°
2026-05-08 09:53 51.15057 -0.18607 214 ft 22 kts 257°
2026-05-08 09:53 51.15017 -0.18888 209 ft 29 kts 258°
2026-05-08 09:53 51.14971 -0.19224 216 ft 31 kts 257°
2026-05-08 09:53 51.14923 -0.19559 212 ft 31 kts 257°
2026-05-08 09:54 51.14877 -0.19902 208 ft 32 kts 259°
2026-05-08 09:54 51.14829 -0.20256 208 ft 33 kts 257°
2026-05-08 09:54 51.14779 -0.20615 209 ft 33 kts 257°
2026-05-08 09:54 51.14729 -0.20973 205 ft 33 kts 257°
2026-05-08 09:55 51.14694 -0.21239 211 ft 12 kts 258°
2026-05-08 09:55 51.14644 -0.21334 207 ft 12 kts 186°
2026-05-08 09:55 51.14617 -0.21329 205 ft 0 kts 169°
2026-05-08 09:55 51.14611 -0.21327 205 ft 4 kts 169°
2026-05-08 09:56 51.14553 -0.21293 214 ft 11 kts 145°
2026-05-08 09:56 51.14517 -0.21181 207 ft 11 kts 87°
2026-05-08 09:56 51.14534 -0.21080 210 ft 7 kts 78°
2026-05-08 09:56 51.14536 -0.21067 212 ft 0 kts 78°
2026-05-08 09:57 51.14708 -0.19804 209 ft 126 kts 77°
2026-05-08 09:57 51.14932 -0.18166 297 ft 169 kts 78°
2026-05-08 09:57 51.15183 -0.16403 1082 ft 162 kts 79°
2026-05-08 09:58 51.15442 -0.14624 1693 ft 173 kts 80°
2026-05-08 09:58 51.15739 -0.12605 1904 ft 199 kts 80°
2026-05-08 09:58 51.16033 -0.10429 2155 ft 218 kts 81°
2026-05-08 09:58 51.16167 -0.08010 2744 ft 220 kts 105°
2026-05-08 09:59 51.15419 -0.05929 3372 ft 226 kts 141°
2026-05-08 09:59 51.13942 -0.04843 3718 ft 245 kts 165°
2026-05-08 09:59 51.12252 -0.04227 4417 ft 251 kts 168°
2026-05-08 09:59 51.10528 -0.03704 5234 ft 253 kts 170°
2026-05-08 10:00 51.08791 -0.03150 6017 ft 256 kts 168°
2026-05-08 10:00 51.07067 -0.02442 6775 ft 259 kts 166°
2026-05-08 10:00 51.05323 -0.01641 7497 ft 263 kts 165°
2026-05-08 10:00 51.03557 -0.00796 8186 ft 268 kts 164°
2026-05-08 10:01 51.01757 0.00075 8829 ft 273 kts 164°
2026-05-08 10:01 50.99921 0.00959 9535 ft 277 kts 165°
2026-05-08 10:01 50.98063 0.01847 10247 ft 281 kts 165°
2026-05-08 10:01 50.96177 0.02743 10893 ft 284 kts 165°
2026-05-08 10:02 50.94268 0.03647 11556 ft 288 kts 165°
2026-05-08 10:02 50.92341 0.04556 12207 ft 291 kts 166°
2026-05-08 10:02 50.90386 0.05475 12860 ft 295 kts 166°
2026-05-08 10:02 50.88430 0.06393 13493 ft 299 kts 166°
2026-05-08 10:03 50.86400 0.07348 14116 ft 302 kts 165°
2026-05-08 10:03 50.84403 0.08286 14725 ft 304 kts 166°
2026-05-08 10:03 50.82365 0.09238 15337 ft 306 kts 165°
2026-05-08 10:03 50.80315 0.10199 15952 ft 308 kts 165°
2026-05-08 10:04 50.78249 0.11164 16536 ft 310 kts 166°
2026-05-08 10:04 50.76118 0.11696 17112 ft 311 kts 180°
2026-05-08 10:04 50.73925 0.11450 17344 ft 324 kts 192°
2026-05-08 10:04 50.71681 0.10627 17493 ft 340 kts 194°
2026-05-08 10:05 50.69327 0.09751 17641 ft 354 kts 193°
2026-05-08 10:05 50.66896 0.08858 18004 ft 362 kts 193°
2026-05-08 10:05 50.64429 0.07960 18484 ft 365 kts 193°
2026-05-08 10:05 50.61943 0.07059 18929 ft 369 kts 193°
2026-05-08 10:06 50.59433 0.06155 19398 ft 371 kts 193°
2026-05-08 10:06 50.56904 0.05248 19851 ft 374 kts 193°
2026-05-08 10:06 50.54355 0.04330 20309 ft 376 kts 193°
2026-05-08 10:06 50.51800 0.03407 20750 ft 379 kts 193°
2026-05-08 10:07 50.49222 0.02478 21185 ft 381 kts 193°
2026-05-08 10:07 50.46626 0.01546 21626 ft 384 kts 193°
2026-05-08 10:07 50.44017 0.00611 22062 ft 386 kts 193°
2026-05-08 10:07 50.41386 -0.00327 22496 ft 389 kts 193°
2026-05-08 10:08 50.38735 -0.01264 22895 ft 392 kts 193°
2026-05-08 10:08 50.36100 -0.02198 23298 ft 395 kts 193°
2026-05-08 10:08 50.33382 -0.03170 23704 ft 397 kts 193°
2026-05-08 10:08 50.30675 -0.04136 24031 ft 400 kts 193°
2026-05-08 10:09 50.27949 -0.05114 24347 ft 403 kts 194°
2026-05-08 10:09 50.25231 -0.06044 24648 ft 407 kts 190°
2026-05-08 10:09 50.22396 -0.06403 24905 ft 413 kts 180°
2026-05-08 10:09 50.19523 -0.05949 25176 ft 418 kts 169°
2026-05-08 10:10 50.16712 -0.04668 25406 ft 424 kts 159°
2026-05-08 10:10 50.14005 -0.02785 25670 ft 429 kts 156°
2026-05-08 10:10 50.11269 -0.00867 25958 ft 432 kts 158°
2026-05-08 10:10 50.08430 0.00640 26369 ft 430 kts 167°
2026-05-08 10:11 50.05517 0.01760 26719 ft 432 kts 167°
2026-05-08 10:11 50.02596 0.02894 27004 ft 435 kts 167°
2026-05-08 10:11 49.99649 0.04054 27283 ft 438 kts 167°
2026-05-08 10:11 49.96680 0.05230 27543 ft 442 kts 168°
2026-05-08 10:12 49.93684 0.06420 27744 ft 447 kts 167°
2026-05-08 10:12 49.90664 0.07615 27988 ft 451 kts 168°
2026-05-08 10:12 49.87612 0.08816 28242 ft 454 kts 168°
2026-05-08 10:12 49.84536 0.10021 28499 ft 457 kts 168°
2026-05-08 10:13 49.81444 0.11225 28757 ft 461 kts 168°
2026-05-08 10:13 49.78323 0.12436 29004 ft 464 kts 168°
2026-05-08 10:13 49.75180 0.13656 29255 ft 467 kts 168°
2026-05-08 10:13 49.72012 0.14888 29435 ft 472 kts 168°
2026-05-08 10:14 49.68821 0.16130 29635 ft 476 kts 168°
2026-05-08 10:14 49.65600 0.17391 29874 ft 479 kts 168°
2026-05-08 10:14 49.62360 0.18690 30107 ft 482 kts 168°
2026-05-08 10:14 49.59103 0.20015 30309 ft 485 kts 168°
2026-05-08 10:15 49.55839 0.21347 30521 ft 487 kts 168°
2026-05-08 10:15 49.52557 0.22681 30741 ft 488 kts 168°
2026-05-08 10:15 49.49257 0.24013 30869 ft 492 kts 169°
2026-05-08 10:15 49.45942 0.25342 30995 ft 494 kts 169°
2026-05-08 10:16 49.42606 0.26672 31204 ft 495 kts 169°
2026-05-08 10:16 49.39270 0.28001 31494 ft 494 kts 169°
2026-05-08 10:16 49.35942 0.29327 31802 ft 493 kts 169°
2026-05-08 10:16 49.33746 0.30202 31979 ft 493 kts 169°
2026-05-08 10:17 49.29311 0.31975 32342 ft 492 kts 169°
2026-05-08 10:17 49.27117 0.32876 32521 ft 492 kts 169°
2026-05-08 10:17 49.23824 0.34264 32797 ft 492 kts 168°
2026-05-08 10:17 49.20528 0.35677 33080 ft 491 kts 168°
2026-05-08 10:18 49.16180 0.37545 33442 ft 490 kts 168°
2026-05-08 10:18 49.12898 0.38938 33730 ft 489 kts 169°
2026-05-08 10:18 49.10688 0.39868 33911 ft 488 kts 169°
2026-05-08 10:18 49.07412 0.41240 34177 ft 487 kts 169°
2026-05-08 10:19 49.04148 0.42603 34461 ft 485 kts 169°
2026-05-08 10:19 49.00909 0.43954 34752 ft 482 kts 169°
2026-05-08 10:19 48.97691 0.45292 35143 ft 476 kts 168°
2026-05-08 10:20 48.91339 0.47928 35754 ft 470 kts 168°
2026-05-08 10:20 48.88189 0.49238 36007 ft 469 kts 168°
2026-05-08 10:20 48.85054 0.50540 36247 ft 467 kts 168°
2026-05-08 10:20 48.81924 0.51836 36469 ft 465 kts 168°
2026-05-08 10:21 48.78808 0.53125 36681 ft 464 kts 168°
2026-05-08 10:21 48.75691 0.54393 36895 ft 463 kts 169°
2026-05-08 10:21 48.72574 0.55627 37022 ft 462 kts 169°
2026-05-08 10:22 48.66359 0.58032 37045 ft 461 kts 169°
2026-05-08 10:22 48.60135 0.60433 37045 ft 462 kts 169°
2026-05-08 10:23 48.53906 0.62852 37041 ft 463 kts 169°
2026-05-08 10:23 48.47717 0.65311 37038 ft 463 kts 168°
2026-05-08 10:24 48.41460 0.67884 37025 ft 464 kts 168°
2026-05-08 10:24 48.35226 0.70441 37040 ft 464 kts 168°
2026-05-08 10:25 48.29028 0.72944 37044 ft 465 kts 168°
2026-05-08 10:25 48.22776 0.75452 37051 ft 465 kts 169°
2026-05-08 10:26 48.16519 0.77922 37039 ft 465 kts 169°
2026-05-08 10:26 48.10259 0.80372 37045 ft 466 kts 169°
2026-05-08 10:27 48.03985 0.82828 37045 ft 466 kts 169°
2026-05-08 10:27 47.97718 0.85284 37044 ft 466 kts 169°
2026-05-08 10:28 47.91447 0.87732 37048 ft 465 kts 169°
2026-05-08 10:28 47.85188 0.90151 37059 ft 465 kts 169°
2026-05-08 10:29 47.78928 0.92578 37016 ft 464 kts 169°
2026-05-08 10:29 47.72683 0.94999 37032 ft 464 kts 169°
2026-05-08 10:30 47.66432 0.97414 37030 ft 464 kts 169°
2026-05-08 10:30 47.60187 0.99824 37038 ft 464 kts 169°
2026-05-08 10:31 47.53931 1.02220 37028 ft 464 kts 169°
2026-05-08 10:31 47.47680 1.04608 37029 ft 464 kts 169°
2026-05-08 10:32 47.41380 1.06358 37029 ft 457 kts 182°
2026-05-08 10:32 47.35055 1.06262 37021 ft 454 kts 186°
2026-05-08 10:33 47.28739 1.06100 37024 ft 454 kts 186°
2026-05-08 10:33 47.22456 1.05958 37028 ft 454 kts 186°
2026-05-08 10:34 47.16137 1.05814 37012 ft 454 kts 186°
2026-05-08 10:34 47.09810 1.05666 37021 ft 455 kts 186°
2026-05-08 10:35 47.03489 1.05520 37022 ft 454 kts 186°
2026-05-08 10:35 46.97128 1.05314 37024 ft 454 kts 187°
2026-05-08 10:36 46.90879 1.05015 37026 ft 452 kts 187°
2026-05-08 10:36 46.84605 1.04726 37033 ft 451 kts 187°
2026-05-08 10:37 46.78334 1.04466 37029 ft 450 kts 187°
2026-05-08 10:37 46.72079 1.04200 37020 ft 450 kts 187°
2026-05-08 10:38 46.65821 1.03940 37021 ft 449 kts 187°
2026-05-08 10:38 46.59579 1.03678 37020 ft 449 kts 187°
2026-05-08 10:39 46.53335 1.03438 37001 ft 449 kts 184°
2026-05-08 10:39 46.47101 1.04829 37006 ft 457 kts 172°
2026-05-08 10:40 46.40899 1.06930 37006 ft 457 kts 172°
2026-05-08 10:40 46.34706 1.08997 36994 ft 457 kts 172°
2026-05-08 10:41 46.28510 1.11049 37002 ft 456 kts 172°
2026-05-08 10:41 46.22327 1.13100 37009 ft 456 kts 172°
2026-05-08 10:42 46.16145 1.15153 36997 ft 456 kts 172°
2026-05-08 10:42 46.09966 1.17196 37016 ft 455 kts 172°
2026-05-08 10:43 46.03804 1.19231 37022 ft 454 kts 172°
2026-05-08 10:43 45.97632 1.21258 37012 ft 455 kts 172°
2026-05-08 10:44 45.91461 1.23291 37012 ft 455 kts 172°
2026-05-08 10:44 45.85287 1.25318 37023 ft 455 kts 172°
2026-05-08 10:45 45.79123 1.27331 37022 ft 454 kts 172°
2026-05-08 10:45 45.72960 1.29340 37016 ft 454 kts 172°
2026-05-08 10:46 45.66848 1.31320 37011 ft 453 kts 172°
2026-05-08 10:46 45.60705 1.33323 37010 ft 452 kts 172°
2026-05-08 10:47 45.54570 1.35315 36994 ft 452 kts 172°
2026-05-08 10:47 45.48457 1.37300 37008 ft 450 kts 172°
2026-05-08 10:48 45.42344 1.39268 37009 ft 450 kts 172°
2026-05-08 10:48 45.36245 1.41224 36996 ft 449 kts 172°
2026-05-08 10:49 45.30151 1.43174 37014 ft 448 kts 172°
2026-05-08 10:49 45.24069 1.45120 37022 ft 448 kts 172°
2026-05-08 10:50 45.17985 1.47062 37006 ft 448 kts 172°
2026-05-08 10:50 45.11914 1.49010 37013 ft 447 kts 172°
2026-05-08 10:51 45.05880 1.50937 37031 ft 447 kts 172°
2026-05-08 10:51 44.99820 1.52864 37020 ft 447 kts 173°
2026-05-08 10:52 44.93753 1.54782 37000 ft 446 kts 173°
2026-05-08 10:52 44.87692 1.56692 37003 ft 447 kts 173°
2026-05-08 10:53 44.81629 1.58615 37008 ft 447 kts 173°
2026-05-08 10:53 44.75560 1.60521 37008 ft 447 kts 173°
2026-05-08 10:54 44.69499 1.62422 37004 ft 446 kts 173°
2026-05-08 10:54 44.63435 1.64329 37002 ft 446 kts 173°
2026-05-08 10:55 44.57380 1.66227 36990 ft 446 kts 173°
2026-05-08 10:55 44.51332 1.68111 37008 ft 445 kts 173°
2026-05-08 10:56 44.45286 1.69993 37013 ft 445 kts 173°
2026-05-08 10:56 44.39252 1.71866 36985 ft 444 kts 173°
2026-05-08 10:57 44.33225 1.73740 36999 ft 443 kts 172°
2026-05-08 10:57 44.24226 1.76263 37001 ft 440 kts 176°
2026-05-08 10:58 44.18178 1.77510 36994 ft 439 kts 177°
2026-05-08 10:58 44.12139 1.78733 36989 ft 439 kts 176°
2026-05-08 10:59 44.06109 1.80032 36992 ft 439 kts 176°
2026-05-08 10:59 44.00077 1.81382 36976 ft 438 kts 175°
2026-05-08 11:00 43.94053 1.82664 36984 ft 436 kts 178°
2026-05-08 11:00 43.88023 1.83377 36992 ft 434 kts 181°
2026-05-08 11:01 43.82005 1.83794 36992 ft 433 kts 182°
2026-05-08 11:01 43.75983 1.84272 36983 ft 433 kts 181°
2026-05-08 11:02 43.66965 1.85163 36985 ft 433 kts 180°
2026-05-08 11:03 43.60963 1.85767 36970 ft 432 kts 180°
2026-05-08 11:03 43.54960 1.86353 36977 ft 432 kts 180°
2026-05-08 11:04 43.48970 1.86926 36983 ft 431 kts 180°
2026-05-08 11:04 43.43019 1.87482 36987 ft 431 kts 180°
2026-05-08 11:05 43.38008 1.87954 36981 ft 430 kts 180°
2026-05-08 11:05 43.31067 1.88618 36986 ft 430 kts 180°
2026-05-08 11:06 43.25107 1.89187 36981 ft 429 kts 180°
2026-05-08 11:06 43.19147 1.89754 36974 ft 429 kts 180°
2026-05-08 11:07 43.13204 1.90333 36981 ft 428 kts 180°
2026-05-08 11:07 43.08230 1.90808 36983 ft 428 kts 180°
2026-05-08 11:08 43.02287 1.91364 36963 ft 428 kts 181°
2026-05-08 11:08 42.96387 1.91920 36963 ft 428 kts 181°
2026-05-08 11:09 42.90452 1.92482 36966 ft 428 kts 181°
2026-05-08 11:09 42.84513 1.93048 36971 ft 427 kts 181°
2026-05-08 11:10 42.78586 1.93605 36978 ft 427 kts 181°
2026-05-08 11:10 42.72653 1.94165 36985 ft 427 kts 181°
2026-05-08 11:11 42.66726 1.94739 36991 ft 428 kts 180°
2026-05-08 11:11 42.60802 1.95770 36992 ft 430 kts 176°
2026-05-08 11:12 42.54900 1.97105 37001 ft 430 kts 175°
2026-05-08 11:12 42.48994 1.98400 37019 ft 429 kts 176°
2026-05-08 11:13 42.43098 1.99587 37018 ft 428 kts 177°
2026-05-08 11:13 42.37197 2.00748 37012 ft 428 kts 177°
2026-05-08 11:14 42.31308 2.01570 37028 ft 424 kts 181°
2026-05-08 11:14 42.25426 2.02027 37038 ft 423 kts 181°
2026-05-08 11:15 42.19544 2.02472 37040 ft 423 kts 181°
2026-05-08 11:15 42.13676 2.03001 37037 ft 423 kts 181°
2026-05-08 11:16 42.07841 2.03569 37046 ft 423 kts 181°
2026-05-08 11:16 42.01981 2.04134 37045 ft 422 kts 181°
2026-05-08 11:17 41.96125 2.04692 37027 ft 422 kts 181°
2026-05-08 11:17 41.90265 2.05241 37045 ft 422 kts 181°
2026-05-08 11:18 41.84420 2.05787 37047 ft 421 kts 181°
2026-05-08 11:18 41.78575 2.06334 37054 ft 421 kts 181°
2026-05-08 11:19 41.72732 2.06879 37044 ft 420 kts 181°
2026-05-08 11:19 41.66900 2.07419 37051 ft 420 kts 181°
2026-05-08 11:20 41.61059 2.07959 37049 ft 420 kts 181°
2026-05-08 11:20 41.55233 2.08507 37050 ft 420 kts 181°
2026-05-08 11:21 41.49406 2.09050 37047 ft 420 kts 181°
2026-05-08 11:21 41.43576 2.09591 37053 ft 420 kts 181°
2026-05-08 11:22 41.37749 2.10128 37049 ft 420 kts 181°
2026-05-08 11:22 41.31919 2.10679 37042 ft 421 kts 179°
2026-05-08 11:23 41.26155 2.12412 37047 ft 427 kts 171°
2026-05-08 11:23 41.20419 2.14466 37051 ft 427 kts 171°
2026-05-08 11:24 41.14678 2.16507 37057 ft 427 kts 171°
2026-05-08 11:24 41.08947 2.18541 37051 ft 427 kts 171°
2026-05-08 11:25 41.03208 2.20575 37061 ft 427 kts 171°
2026-05-08 11:25 40.97469 2.22613 37061 ft 427 kts 171°
2026-05-08 11:26 40.91736 2.24640 37066 ft 426 kts 171°
2026-05-08 11:26 40.86007 2.26659 37049 ft 426 kts 171°
2026-05-08 11:27 40.80274 2.28679 37059 ft 426 kts 171°
2026-05-08 11:27 40.74545 2.30686 37054 ft 426 kts 172°
2026-05-08 11:28 40.68856 2.32685 37062 ft 426 kts 172°
2026-05-08 11:28 40.63136 2.34703 37065 ft 426 kts 172°
2026-05-08 11:29 40.57417 2.36710 37059 ft 425 kts 172°
2026-05-08 11:29 40.51693 2.38711 37059 ft 425 kts 172°
2026-05-08 11:30 40.45940 2.40705 37057 ft 425 kts 172°
2026-05-08 11:30 40.40259 2.42675 37043 ft 425 kts 172°
2026-05-08 11:31 40.34548 2.44670 37053 ft 425 kts 172°
2026-05-08 11:31 40.28829 2.46654 37051 ft 425 kts 172°
2026-05-08 11:32 40.23113 2.48626 37050 ft 425 kts 172°
2026-05-08 11:32 40.17390 2.50601 37028 ft 425 kts 172°
2026-05-08 11:33 40.11665 2.52579 37036 ft 426 kts 172°
2026-05-08 11:33 40.05930 2.54557 37037 ft 426 kts 172°
2026-05-08 11:34 40.00195 2.56528 37033 ft 426 kts 172°
2026-05-08 11:34 39.94456 2.58498 37031 ft 426 kts 173°
2026-05-08 11:35 39.88719 2.60463 37029 ft 427 kts 173°
2026-05-08 11:35 39.82980 2.62428 37027 ft 427 kts 173°
2026-05-08 11:36 39.77232 2.64381 37003 ft 427 kts 173°
2026-05-08 11:36 39.71495 2.66334 37008 ft 426 kts 173°
2026-05-08 11:37 39.65760 2.68293 36994 ft 425 kts 174°
2026-05-08 11:37 39.60038 2.70234 37006 ft 425 kts 174°
2026-05-08 11:38 39.54310 2.72174 37004 ft 425 kts 174°
2026-05-08 11:38 39.48599 2.74112 37015 ft 424 kts 174°
2026-05-08 11:39 39.42885 2.76047 37022 ft 424 kts 174°
2026-05-08 11:39 39.37182 2.78007 37029 ft 424 kts 174°
2026-05-08 11:40 39.31480 2.79990 36991 ft 424 kts 174°
2026-05-08 11:40 39.25784 2.81970 37006 ft 424 kts 174°
2026-05-08 11:41 39.20097 2.83927 37020 ft 423 kts 175°
2026-05-08 11:41 39.14404 2.85884 37018 ft 423 kts 174°
2026-05-08 11:42 39.08717 2.87839 37013 ft 423 kts 175°
2026-05-08 11:42 39.03028 2.89790 37009 ft 423 kts 175°
2026-05-08 11:43 38.97346 2.91741 37020 ft 423 kts 175°
2026-05-08 11:43 38.91696 2.93679 37020 ft 423 kts 175°
2026-05-08 11:44 38.86014 2.95616 37016 ft 422 kts 175°
2026-05-08 11:44 38.80338 2.97542 37001 ft 422 kts 175°
2026-05-08 11:45 38.74661 2.99470 37009 ft 422 kts 175°
2026-05-08 11:45 38.68997 3.01402 37012 ft 421 kts 175°
2026-05-08 11:46 38.63330 3.03331 37010 ft 421 kts 175°
2026-05-08 11:46 38.57672 3.05249 36996 ft 421 kts 176°
2026-05-08 11:47 38.52009 3.07152 36997 ft 421 kts 176°
2026-05-08 11:47 38.46350 3.09055 37006 ft 421 kts 176°
2026-05-08 11:48 38.40683 3.10965 37011 ft 421 kts 176°
2026-05-08 11:48 38.35022 3.12865 37012 ft 421 kts 176°
2026-05-08 11:49 38.29349 3.14610 37011 ft 412 kts 183°
2026-05-08 11:49 38.23739 3.14894 37014 ft 402 kts 189°
2026-05-08 11:50 38.18138 3.15001 37015 ft 402 kts 189°
2026-05-08 11:50 38.12541 3.15113 36990 ft 402 kts 189°
2026-05-08 11:51 38.06955 3.15218 36700 ft 394 kts 195°
2026-05-08 11:51 38.04375 3.14453 36101 ft 373 kts 210°
2026-05-08 11:51 38.02008 3.13117 35455 ft 371 kts 212°
2026-05-08 11:51 37.99712 3.11734 34952 ft 369 kts 212°
2026-05-08 11:52 37.97373 3.10307 34376 ft 369 kts 212°
2026-05-08 11:52 37.95063 3.08882 33770 ft 369 kts 212°
2026-05-08 11:52 37.92788 3.07464 33108 ft 369 kts 212°
2026-05-08 11:52 37.90493 3.06019 32428 ft 369 kts 212°
2026-05-08 11:53 37.88197 3.04574 31819 ft 368 kts 212°
2026-05-08 11:53 37.85918 3.03111 31198 ft 366 kts 212°
2026-05-08 11:53 37.83657 3.01635 30585 ft 365 kts 212°
2026-05-08 11:53 37.81419 3.00152 29976 ft 363 kts 212°
2026-05-08 11:54 37.79192 2.98660 29279 ft 361 kts 212°
2026-05-08 11:54 37.76975 2.97178 28599 ft 359 kts 212°
2026-05-08 11:54 37.74771 2.95713 27938 ft 358 kts 212°
2026-05-08 11:54 37.73310 2.94747 27503 ft 357 kts 212°
2026-05-08 11:55 37.71112 2.93301 26869 ft 355 kts 212°
2026-05-08 11:55 37.68928 2.91870 26245 ft 353 kts 212°
2026-05-08 11:55 37.66746 2.90451 25613 ft 352 kts 212°
2026-05-08 11:55 37.64567 2.89047 25013 ft 350 kts 212°
2026-05-08 11:56 37.62400 2.87659 24431 ft 349 kts 212°
2026-05-08 11:56 37.60237 2.86281 23860 ft 348 kts 212°
2026-05-08 11:56 37.58078 2.84910 23248 ft 347 kts 212°
2026-05-08 11:56 37.55926 2.83538 22578 ft 346 kts 212°
2026-05-08 11:57 37.53787 2.82159 21923 ft 345 kts 212°
2026-05-08 11:57 37.51656 2.80769 21278 ft 344 kts 212°
2026-05-08 11:57 37.49542 2.79373 20652 ft 343 kts 212°
2026-05-08 11:57 37.47436 2.77964 20043 ft 342 kts 212°
2026-05-08 11:58 37.45352 2.76553 19439 ft 340 kts 212°
2026-05-08 11:58 37.43276 2.75133 18839 ft 339 kts 212°
2026-05-08 11:58 37.41210 2.73716 18252 ft 337 kts 212°
2026-05-08 11:59 37.37120 2.70874 16947 ft 334 kts 212°
2026-05-08 11:59 37.35095 2.69443 16312 ft 333 kts 212°
2026-05-08 11:59 37.33082 2.68006 15689 ft 332 kts 212°
2026-05-08 11:59 37.31080 2.66562 15089 ft 331 kts 212°
2026-05-08 12:00 37.29092 2.65110 14488 ft 330 kts 212°
2026-05-08 12:00 37.27115 2.63654 13903 ft 329 kts 212°
2026-05-08 12:00 37.25148 2.62194 13257 ft 328 kts 212°
2026-05-08 12:00 37.23186 2.60743 12614 ft 326 kts 212°
2026-05-08 12:01 37.21230 2.59309 11985 ft 325 kts 212°
2026-05-08 12:01 37.19286 2.57897 11348 ft 323 kts 212°
2026-05-08 12:01 37.17347 2.56500 10740 ft 320 kts 212°
2026-05-08 12:01 37.15420 2.55116 10194 ft 317 kts 212°
2026-05-08 12:02 37.13575 2.53795 10030 ft 301 kts 212°
2026-05-08 12:02 37.11788 2.52523 9990 ft 282 kts 212°
2026-05-08 12:02 37.10129 2.51353 9998 ft 267 kts 212°
2026-05-08 12:02 37.08537 2.50235 9998 ft 265 kts 212°
2026-05-08 12:03 37.06776 2.49450 9960 ft 269 kts 191°
2026-05-08 12:03 37.04929 2.49705 9547 ft 278 kts 166°
2026-05-08 12:03 37.03124 2.50636 9113 ft 281 kts 161°
2026-05-08 12:03 37.01305 2.51661 8686 ft 280 kts 161°
2026-05-08 12:04 36.99564 2.52637 8279 ft 279 kts 161°
2026-05-08 12:04 36.97795 2.53618 7979 ft 278 kts 161°
2026-05-08 12:04 36.96024 2.54588 7673 ft 277 kts 161°
2026-05-08 12:04 36.94260 2.55543 7385 ft 275 kts 161°
2026-05-08 12:05 36.92502 2.56485 7092 ft 274 kts 161°
2026-05-08 12:05 36.90752 2.57415 6819 ft 273 kts 161°
2026-05-08 12:05 36.89000 2.58332 6530 ft 273 kts 161°
2026-05-08 12:05 36.87251 2.59237 6244 ft 271 kts 161°
2026-05-08 12:06 36.85509 2.60132 5925 ft 270 kts 161°
2026-05-08 12:06 36.83774 2.61012 5634 ft 268 kts 161°
2026-05-08 12:06 36.82043 2.61879 5339 ft 268 kts 161°
2026-05-08 12:06 36.80318 2.62735 5057 ft 266 kts 161°
2026-05-08 12:07 36.78595 2.63579 4999 ft 266 kts 161°
2026-05-08 12:07 36.76862 2.64424 5001 ft 268 kts 161°
2026-05-08 12:07 36.75127 2.65271 5002 ft 268 kts 161°
2026-05-08 12:07 36.73394 2.66118 5002 ft 267 kts 161°
2026-05-08 12:08 36.71674 2.66963 4985 ft 260 kts 159°
2026-05-08 12:08 36.70261 2.68224 4989 ft 245 kts 129°
2026-05-08 12:08 36.69569 2.70057 5004 ft 227 kts 104°
2026-05-08 12:08 36.69732 2.71915 4994 ft 212 kts 69°
2026-05-08 12:09 36.70210 2.73600 4989 ft 202 kts 89°
2026-05-08 12:09 36.70095 2.75321 5018 ft 200 kts 97°
2026-05-08 12:09 36.70050 2.77053 5009 ft 200 kts 92°
2026-05-08 12:09 36.70024 2.78786 5004 ft 200 kts 93°
2026-05-08 12:10 36.69992 2.80517 5003 ft 200 kts 95°
2026-05-08 12:10 36.69958 2.82253 5003 ft 200 kts 94°
2026-05-08 12:10 36.69923 2.83959 4999 ft 199 kts 94°
2026-05-08 12:10 36.69888 2.85685 4871 ft 199 kts 95°
2026-05-08 12:11 36.69853 2.87396 4645 ft 196 kts 93°
2026-05-08 12:11 36.69819 2.89073 4386 ft 190 kts 92°
2026-05-08 12:11 36.69785 2.90685 4155 ft 182 kts 93°
2026-05-08 12:11 36.69753 2.92217 3920 ft 173 kts 92°
2026-05-08 12:12 36.69722 2.93707 3698 ft 171 kts 91°
2026-05-08 12:12 36.69690 2.95186 3469 ft 170 kts 91°
2026-05-08 12:12 36.69659 2.96657 3249 ft 169 kts 90°
2026-05-08 12:12 36.69627 2.98126 3024 ft 169 kts 89°
2026-05-08 12:13 36.69596 2.99588 2799 ft 169 kts 89°
2026-05-08 12:13 36.69564 3.01057 2579 ft 170 kts 87°
2026-05-08 12:13 36.69532 3.02528 2350 ft 169 kts 86°
2026-05-08 12:13 36.69500 3.03951 2134 ft 159 kts 85°
2026-05-08 12:14 36.69470 3.05294 1923 ft 152 kts 87°
2026-05-08 12:14 36.69442 3.06586 1728 ft 149 kts 89°
2026-05-08 12:14 36.69413 3.07871 1534 ft 148 kts 89°
2026-05-08 12:14 36.69385 3.09143 1343 ft 146 kts 89°
2026-05-08 12:15 36.69357 3.10412 1153 ft 146 kts 90°
2026-05-08 12:15 36.69328 3.11672 959 ft 145 kts 90°
2026-05-08 12:15 36.69305 3.12916 815 ft 142 kts 90°
2026-05-08 12:15 36.69283 3.14150 640 ft 143 kts 91°
2026-05-08 12:16 36.69243 3.15396 423 ft 144 kts 89°
2026-05-08 12:16 36.69218 3.16637 182 ft 142 kts 89°
2026-05-08 12:16 36.69191 3.17835 86 ft 127 kts 89°
2026-05-08 12:16 36.69170 3.18738 90 ft 80 kts 92°
2026-05-08 12:17 36.69156 3.19345 87 ft 66 kts 92°
2026-05-08 12:17 36.69145 3.19876 89 ft 57 kts 91°
2026-05-08 12:17 36.69141 3.20334 89 ft 50 kts 90°
2026-05-08 12:17 36.69135 3.20744 89 ft 45 kts 91°
2026-05-08 12:18 36.69142 3.20945 90 ft 7 kts 55°
2026-05-08 12:18 36.69190 3.20957 89 ft 11 kts 350°
2026-05-08 12:18 36.69290 3.20917 91 ft 17 kts 340°
2026-05-08 12:18 36.69407 3.20868 91 ft 18 kts 342°
2026-05-08 12:19 36.69532 3.20818 89 ft 16 kts 342°
2026-05-08 12:19 36.69598 3.20720 89 ft 17 kts 272°
2026-05-08 12:19 36.69600 3.20566 88 ft 19 kts 271°
2026-05-08 12:19 36.69611 3.20399 91 ft 17 kts 298°
2026-05-08 12:20 36.69639 3.20298 88 ft 8 kts 273°
2026-05-08 12:20 36.69641 3.20270 88 ft 1 kts 274°
2026-05-08 12:20 36.69641 3.20268 88 ft 0 kts 274°